| time (UTC) | temp F | wind direction | speed MPH | gust MPH | rain 1hr in | rain 24hr in | rain mn in | humidity % | barometer mb |
| 20260506101559 | 55 | 360 | 1.0 | 5.0 | 0.00 | 0.00 | 0.00 | 100 | 1015.1 |
| 20260506100104 | 55 | 206 | 0.0 | 2.0 | 0.00 | 0.00 | 0.00 | 100 | 1015.0 |
| 20260506094550 | 55 | 360 | 0.0 | 3.0 | 0.00 | 0.00 | 0.00 | 100 | 1014.9 |
| 20260506093048 | 55 | 360 | 0.0 | 3.0 | 0.00 | 0.00 | 0.00 | 100 | 1014.8 |
| 20260506091542 | 55 | 360 | 1.0 | 4.0 | 0.00 | 0.00 | 0.00 | 100 | 1014.7 |
| 20260506090040 | 55 | 360 | 0.0 | 3.0 | 0.00 | 0.00 | 0.00 | 100 | 1014.7 |
| 20260506084559 | 55 | 360 | 0.0 | 3.0 | 0.00 | 0.00 | 0.00 | 100 | 1014.7 |
| 20260506083036 | 56 | 360 | 0.0 | 4.0 | 0.00 | 0.00 | 0.00 | 100 | 1014.6 |
| 20260506081541 | 56 | 360 | 0.0 | 3.0 | 0.00 | 0.00 | 0.00 | 100 | 1014.6 |
| 20260506073037 | 57 | 360 | 0.0 | 2.0 | 0.00 | 0.00 | 0.00 | 100 | 1014.2 |
| 20260506071525 | 57 | 360 | 0.0 | 1.0 | 0.00 | 0.00 | 0.00 | 100 | 1014.2 |
| 20260506061550 | 58 | 360 | 0.0 | 2.0 | 0.00 | 0.00 | 0.00 | 100 | 1013.7 |
| 20260506044636 | 59 | 360 | 0.0 | 2.0 | 0.00 | 0.00 | 0.00 | 98 | 1013.3 |
| 20260506043042 | 59 | 360 | 0.0 | 2.0 | 0.00 | 0.00 | 0.00 | 97 | 1013.1 |
| 20260506041551 | 60 | 360 | 0.0 | 4.0 | 0.00 | 0.00 | 0.00 | 97 | 1013.0 |
| 20260506040040 | 60 | 360 | 0.0 | 3.0 | 0.00 | 0.00 | 0.00 | 97 | 1012.9 |
| 20260506034602 | 60 | 360 | 0.0 | 3.0 | 0.00 | 0.00 | 0.00 | 97 | 1012.7 |
| 20260506033037 | 60 | 360 | 0.0 | 5.0 | 0.00 | 0.00 | 0.00 | 97 | 1012.7 |
| 20260506031540 | 60 | 360 | 0.0 | 4.0 | 0.00 | 0.00 | 0.00 | 97 | 1012.5 |
| 20260506030038 | 60 | 360 | 0.0 | 5.0 | 0.00 | 0.00 | 0.00 | 97 | 1012.3 |
| 20260506024507 | 60 | 360 | 0.0 | 6.0 | 0.00 | 0.00 | 0.00 | 97 | 1012.3 |
| 20260506023006 | 60 | 360 | 1.0 | 10.0 | 0.00 | 0.00 | 0.00 | 96 | 1012.5 |
| 20260506021502 | 62 | 360 | 0.0 | 3.0 | 0.00 | 0.00 | 0.00 | 94 | 1012.5 |
| 20260506020002 | 62 | 360 | 1.0 | 9.0 | 0.00 | 0.00 | 0.00 | 96 | 1012.5 |
| 20260506014601 | 63 | 360 | 0.0 | 5.0 | 0.00 | 0.00 | 0.00 | 95 | 1012.5 |
| 20260506013100 | 65 | 360 | 1.0 | 5.0 | 0.00 | 0.00 | 0.00 | 90 | 1012.5 |
| 20260506011620 | 64 | 360 | 1.0 | 11.0 | 0.00 | 0.00 | 0.00 | 92 | 1012.5 |
| 20260506004624 | 63 | 360 | 1.0 | 11.0 | 0.00 | 0.00 | 0.00 | 93 | 1012.5 |
| 20260506003109 | 65 | 360 | 1.0 | 5.0 | 0.00 | 0.00 | 0.00 | 90 | 1012.5 |
| 20260506001555 | 65 | 360 | 1.0 | 4.0 | 0.00 | 0.00 | 0.00 | 89 | 1012.6 |
| 20260506000050 | 64 | 172 | 1.0 | 13.0 | 0.00 | 0.00 | 0.00 | 93 | 1012.8 |
| 20260505234611 | 65 | 360 | 1.0 | 12.0 | 0.00 | 0.00 | 0.00 | 91 | 1012.9 |
| 20260505233048 | 64 | 360 | 0.0 | 11.0 | 0.00 | 0.00 | 0.00 | 94 | 1013.0 |
| 20260505231543 | 64 | 145 | 1.0 | 10.0 | 0.00 | 0.00 | 0.00 | 92 | 1013.2 |
| 20260505230044 | 63 | 360 | 1.0 | 10.0 | 0.00 | 0.00 | 0.00 | 94 | 1013.2 |
| 20260505224542 | 64 | 219 | 1.0 | 15.0 | 0.00 | 0.00 | 0.00 | 93 | 1013.4 |
| 20260505223039 | 63 | 360 | 2.0 | 13.0 | 0.00 | 0.00 | 0.00 | 93 | 1013.5 |
| 20260505221537 | 61 | 360 | 1.0 | 12.0 | 0.00 | 0.00 | 0.00 | 96 | 1013.6 |
| 20260505220054 | 63 | 211 | 3.0 | 16.0 | 0.00 | 0.00 | 0.00 | 92 | 1013.6 |
| 20260505214540 | 62 | 360 | 0.0 | 16.0 | 0.00 | 0.00 | 0.00 | 95 | 1013.6 |
| 20260505213036 | 64 | 360 | 0.0 | 8.0 | 0.00 | 0.00 | 0.00 | 93 | 1013.7 |
| 20260505211505 | 61 | 360 | 3.0 | 17.0 | 0.00 | 0.00 | 0.00 | 95 | 1013.9 |
| 20260505210005 | 63 | 360 | 0.0 | 13.0 | 0.00 | 0.00 | 0.00 | 94 | 1013.9 |
| 20260505204502 | 62 | 360 | 3.0 | 13.0 | 0.00 | 0.00 | 0.00 | 94 | 1014.0 |
| 20260505203002 | 62 | 360 | 3.0 | 17.0 | 0.00 | 0.00 | 0.00 | 95 | 1014.1 |
| 20260505201605 | 62 | 360 | 2.0 | 15.0 | 0.00 | 0.00 | 0.00 | 94 | 1014.0 |
| 20260505200104 | 65 | 360 | 0.0 | 14.0 | 0.00 | 0.00 | 0.00 | 92 | 1014.1 |
| 20260505194556 | 62 | 360 | 0.0 | 14.0 | 0.00 | 0.00 | 0.00 | 96 | 1014.1 |
| 20260505193056 | 61 | 220 | 1.0 | 14.0 | 0.00 | 0.00 | 0.00 | 97 | 1014.1 |
| 20260505191557 | 60 | 360 | 1.0 | 12.0 | 0.00 | 0.00 | 0.00 | 98 | 1014.1 |
| 20260505190049 | 61 | 360 | 0.0 | 8.0 | 0.00 | 0.00 | 0.00 | 97 | 1014.1 |
| 20260505184545 | 61 | 360 | 0.0 | 8.0 | 0.00 | 0.00 | 0.00 | 98 | 1014.1 |
| 20260505183044 | 61 | 360 | 0.0 | 6.0 | 0.00 | 0.00 | 0.00 | 99 | 1014.1 |
| 20260505181539 | 60 | 360 | 0.0 | 9.0 | 0.00 | 0.00 | 0.00 | 100 | 1014.1 |
| 20260505180048 | 59 | 360 | 0.0 | 6.0 | 0.00 | 0.00 | 0.00 | 100 | 1014.0 |
| 20260505174540 | 59 | 360 | 0.0 | 4.0 | 0.00 | 0.00 | 0.00 | 100 | 1014.0 |
| 20260505173035 | 59 | 360 | 0.0 | 4.0 | 0.00 | 0.00 | 0.00 | 100 | 1014.0 |
| 20260505171534 | 58 | 360 | 0.0 | 6.0 | 0.00 | 0.00 | 0.00 | 100 | 1014.0 |
| 20260505170032 | 58 | 230 | 0.0 | 2.0 | 0.00 | 0.00 | 0.00 | 100 | 1013.9 |
| 20260505164528 | 58 | 360 | 0.0 | 5.0 | 0.00 | 0.00 | 0.00 | 100 | 1013.9 |
| 20260505163026 | 58 | 226 | 0.0 | 4.0 | 0.00 | 0.00 | 0.00 | 100 | 1013.9 |
| 20260505161525 | 59 | 360 | 0.0 | 4.0 | 0.00 | 0.00 | 0.00 | 100 | 1013.8 |
| 20260505153023 | 58 | 360 | 0.0 | 1.0 | 0.00 | 0.00 | 0.00 | 100 | 1013.5 |
| 20260505151517 | 58 | 360 | 0.0 | 2.0 | 0.00 | 0.00 | 0.00 | 100 | 1013.4 |
| 20260505124555 | 56 | 360 | 0.0 | 3.0 | 0.00 | 0.00 | 0.00 | 100 | 1011.8 |
| 20260505123041 | 56 | 360 | 0.0 | 4.0 | 0.00 | 0.00 | 0.00 | 100 | 1011.6 |
| 20260505121521 | 57 | 360 | 0.0 | 2.0 | 0.00 | 0.00 | 0.00 | 100 | 1011.3 |
| 20260505120011 | 57 | 360 | 0.0 | 4.0 | 0.00 | 0.00 | 0.00 | 100 | 1011.2 |
| 20260505114509 | 57 | 360 | 0.0 | 2.0 | 0.00 | 0.00 | 0.00 | 100 | 1011.0 |
| 20260505113007 | 57 | 360 | 0.0 | 1.0 | 0.00 | 0.00 | 0.00 | 100 | 1010.9 |
| 20260505111506 | 58 | 223 | 0.0 | 2.0 | 0.00 | 0.00 | 0.00 | 100 | 1010.7 |